Time,TemperatureF,DewpointF,PressureIn,WindDirection,WindDirectionDegrees,WindSpeedMPH,WindSpeedGustMPH,Humidity,HourlyPrecipIn,Conditions,Clouds,dailyrainin,SoftwareType,DateUTC
2013-02-15 00:00:00,48.7,31.8,30.01,SSW,192,0.0,3.0,52,0.00,,,0.00,Wunderground v.1.15,2013-02-15 06:00:00,
2013-02-15 00:10:00,48.4,32.0,30.02,SSW,192,0.0,3.0,53,0.00,,,0.00,Wunderground v.1.15,2013-02-15 06:10:00,
2013-02-15 00:20:00,48.1,32.2,30.02,SSW,192,0.0,3.0,54,0.00,,,0.00,Wunderground v.1.15,2013-02-15 06:20:00,
2013-02-15 00:30:00,48.0,32.1,30.02,SSW,192,0.0,3.0,54,0.00,,,0.00,Wunderground v.1.15,2013-02-15 06:30:00,
2013-02-15 00:40:00,47.8,31.9,30.02,SSW,192,0.0,3.0,54,0.00,,,0.00,Wunderground v.1.15,2013-02-15 06:40:00,
2013-02-15 00:50:00,47.8,32.4,30.02,SSW,192,0.0,3.0,55,0.00,,,0.00,Wunderground v.1.15,2013-02-15 06:50:00,
2013-02-15 01:00:00,47.7,32.3,30.03,SSW,192,0.0,3.0,55,0.00,,,0.00,Wunderground v.1.15,2013-02-15 07:00:00,
2013-02-15 01:10:00,47.4,32.5,30.03,SSW,192,0.0,3.0,56,0.00,,,0.00,Wunderground v.1.15,2013-02-15 07:10:00,
2013-02-15 01:20:00,47.5,32.6,30.03,SSW,192,0.0,3.0,56,0.00,,,0.00,Wunderground v.1.15,2013-02-15 07:20:00,
2013-02-15 01:30:00,47.5,32.6,30.03,SSW,192,0.0,3.0,56,0.00,,,0.00,Wunderground v.1.15,2013-02-15 07:30:00,
2013-02-15 01:40:00,47.4,32.9,30.04,SSW,192,0.0,3.0,57,0.00,,,0.00,Wunderground v.1.15,2013-02-15 07:40:00,
2013-02-15 01:50:00,47.2,32.7,30.07,NW,305,3.0,4.0,57,0.00,,,0.00,Wunderground v.1.15,2013-02-15 07:50:00,
2013-02-15 02:00:00,46.1,32.6,30.06,WNW,296,3.0,3.0,59,0.00,,,0.00,Wunderground v.1.15,2013-02-15 08:00:00,
2013-02-15 02:10:00,45.1,33.2,30.07,WNW,296,0.0,3.0,63,0.00,,,0.00,Wunderground v.1.15,2013-02-15 08:10:00,
2013-02-15 02:20:00,44.4,33.0,30.06,WNW,296,0.0,3.0,64,0.00,,,0.00,Wunderground v.1.15,2013-02-15 08:20:00,
2013-02-15 02:30:00,43.8,32.8,30.06,WNW,294,0.0,3.0,65,0.00,,,0.00,Wunderground v.1.15,2013-02-15 08:30:00,
2013-02-15 02:40:00,43.8,33.2,30.06,WNW,293,0.0,3.0,66,0.00,,,0.00,Wunderground v.1.15,2013-02-15 08:40:00,
2013-02-15 02:50:00,43.6,33.4,30.06,WNW,292,0.0,3.0,67,0.00,,,0.00,Wunderground v.1.15,2013-02-15 08:50:00,
2013-02-15 03:00:00,43.4,33.5,30.06,WNW,292,0.0,3.0,68,0.00,,,0.00,Wunderground v.1.15,2013-02-15 09:00:00,
2013-02-15 03:10:00,43.0,33.2,30.07,WNW,290,4.0,5.0,68,0.00,,,0.00,Wunderground v.1.15,2013-02-15 09:10:00,
2013-02-15 03:20:00,42.6,33.1,30.07,WNW,288,4.0,4.0,69,0.00,,,0.00,Wunderground v.1.15,2013-02-15 09:20:00,
2013-02-15 03:30:00,42.4,32.6,30.07,WNW,288,2.0,5.0,68,0.00,,,0.00,Wunderground v.1.15,2013-02-15 09:30:00,
2013-02-15 03:40:00,42.0,32.2,30.08,WNW,286,4.0,6.0,68,0.00,,,0.00,Wunderground v.1.15,2013-02-15 09:40:00,
2013-02-15 03:50:00,41.5,32.1,30.08,WNW,301,6.0,6.0,69,0.00,,,0.00,Wunderground v.1.15,2013-02-15 09:50:00,
2013-02-15 04:00:00,41.4,32.0,30.08,NW,313,6.0,6.0,69,0.00,,,0.00,Wunderground v.1.15,2013-02-15 10:00:00,
2013-02-15 04:10:00,40.9,31.9,30.08,NW,317,5.0,5.0,70,0.00,,,0.00,Wunderground v.1.15,2013-02-15 10:10:00,
2013-02-15 04:20:00,40.5,31.8,30.10,NW,321,5.0,5.0,71,0.00,,,0.00,Wunderground v.1.15,2013-02-15 10:20:00,
2013-02-15 04:30:00,40.6,32.3,30.10,NW,325,5.0,5.0,72,0.00,,,0.00,Wunderground v.1.15,2013-02-15 10:30:00,
2013-02-15 04:40:00,40.7,33.1,30.11,NW,326,3.0,3.0,74,0.00,,,0.00,Wunderground v.1.15,2013-02-15 10:40:00,
2013-02-15 04:50:00,41.0,34.0,30.11,NNW,328,3.0,4.0,76,0.00,,,0.00,Wunderground v.1.15,2013-02-15 10:50:00,
2013-02-15 05:00:00,41.7,35.0,30.12,North,355,6.0,6.0,77,0.00,,,0.00,Wunderground v.1.15,2013-02-15 11:00:00,
2013-02-15 05:10:00,42.2,35.2,30.13,North,355,6.0,6.0,76,0.00,,,0.00,Wunderground v.1.15,2013-02-15 11:10:00,
2013-02-15 05:20:00,42.6,35.6,30.13,North,5,7.0,7.0,76,0.00,,,0.00,Wunderground v.1.15,2013-02-15 11:20:00,
2013-02-15 05:30:00,43.1,35.7,30.14,North,5,7.0,7.0,75,0.00,,,0.00,Wunderground v.1.15,2013-02-15 11:30:00,
2013-02-15 05:40:00,43.6,36.2,30.14,North,5,8.0,12.0,75,0.00,,,0.00,Wunderground v.1.15,2013-02-15 11:40:00,
2013-02-15 05:50:00,44.0,36.2,30.15,North,360,8.0,10.0,74,0.00,,,0.00,Wunderground v.1.15,2013-02-15 11:50:00,
2013-02-15 06:00:00,44.3,36.2,30.15,NNE,26,9.0,16.0,73,0.00,,,0.00,Wunderground v.1.15,2013-02-15 12:00:00,
2013-02-15 06:10:00,44.5,36.0,30.16,NNE,24,11.0,13.0,72,0.00,,,0.00,Wunderground v.1.15,2013-02-15 12:10:00,
2013-02-15 06:20:00,44.6,35.8,30.16,NNE,23,11.0,11.0,71,0.00,,,0.00,Wunderground v.1.15,2013-02-15 12:20:00,
2013-02-15 06:30:00,44.5,35.7,30.17,NNW,346,10.0,10.0,71,0.00,,,0.00,Wunderground v.1.15,2013-02-15 12:30:00,
2013-02-15 06:40:00,44.5,35.3,30.17,NNE,15,11.0,15.0,70,0.00,,,0.00,Wunderground v.1.15,2013-02-15 12:40:00,
2013-02-15 06:50:00,44.5,35.0,30.18,NNE,24,11.0,12.0,69,0.00,,,0.00,Wunderground v.1.15,2013-02-15 12:50:00,
2013-02-15 07:00:00,44.4,34.9,30.19,NNE,18,11.0,13.0,69,0.00,,,0.00,Wunderground v.1.15,2013-02-15 13:00:00,
2013-02-15 07:10:00,44.3,34.4,30.19,NNE,14,12.0,12.0,68,0.00,,,0.00,Wunderground v.1.15,2013-02-15 13:10:00,
2013-02-15 07:20:00,44.2,33.9,30.20,NNE,31,11.0,11.0,67,0.00,,,0.00,Wunderground v.1.15,2013-02-15 13:20:00,
2013-02-15 07:30:00,44.2,33.9,30.22,NNE,20,12.0,12.0,67,0.00,,,0.00,Wunderground v.1.15,2013-02-15 13:30:00,
2013-02-15 07:40:00,44.4,34.1,30.22,NNE,28,10.0,10.0,67,0.00,,,0.00,Wunderground v.1.15,2013-02-15 13:40:00,
2013-02-15 07:50:00,44.6,33.9,30.24,NE,34,9.0,9.0,66,0.00,,,0.00,Wunderground v.1.15,2013-02-15 13:50:00,
2013-02-15 08:00:00,44.9,34.2,30.24,NNE,14,10.0,10.0,66,0.00,,,0.00,Wunderground v.1.15,2013-02-15 14:00:00,
2013-02-15 08:10:00,45.3,34.2,30.25,NNE,19,9.0,9.0,65,0.00,,,0.00,Wunderground v.1.15,2013-02-15 14:10:00,
2013-02-15 08:20:00,45.6,34.9,30.25,NNE,28,11.0,13.0,66,0.00,,,0.00,Wunderground v.1.15,2013-02-15 14:20:00,
2013-02-15 08:30:00,46.0,34.9,30.26,NE,40,12.0,12.0,65,0.00,,,0.00,Wunderground v.1.15,2013-02-15 14:30:00,
2013-02-15 08:40:00,46.5,35.7,30.26,NE,36,12.0,17.0,66,0.00,,,0.00,Wunderground v.1.15,2013-02-15 14:40:00,
2013-02-15 08:50:00,46.9,36.1,30.27,NNE,25,15.0,15.0,66,0.00,,,0.00,Wunderground v.1.15,2013-02-15 14:50:00,
2013-02-15 09:00:00,47.3,36.1,30.27,NNE,31,18.0,18.0,65,0.00,,,0.00,Wunderground v.1.15,2013-02-15 15:00:00,
2013-02-15 09:10:00,47.8,36.6,30.27,NNE,24,17.0,18.0,65,0.00,,,0.00,Wunderground v.1.15,2013-02-15 15:10:00,
2013-02-15 09:20:00,48.1,36.9,30.27,NE,47,18.0,18.0,65,0.00,,,0.00,Wunderground v.1.15,2013-02-15 15:20:00,
2013-02-15 09:30:00,48.8,36.8,30.28,NE,41,14.0,14.0,63,0.00,,,0.00,Wunderground v.1.15,2013-02-15 15:30:00,
2013-02-15 09:40:00,49.3,37.2,30.28,NE,38,16.0,18.0,63,0.00,,,0.00,Wunderground v.1.15,2013-02-15 15:40:00,
2013-02-15 09:50:00,49.5,37.4,30.28,NNE,30,17.0,20.0,63,0.00,,,0.00,Wunderground v.1.15,2013-02-15 15:50:00,
2013-02-15 10:00:00,49.6,37.5,30.28,NNE,28,16.0,16.0,63,0.00,,,0.00,Wunderground v.1.15,2013-02-15 16:00:00,
2013-02-15 10:10:00,49.8,36.9,30.28,NNE,26,16.0,16.0,61,0.00,,,0.00,Wunderground v.1.15,2013-02-15 16:10:00,
2013-02-15 10:20:00,50.1,37.2,30.29,NE,40,13.0,13.0,61,0.00,,,0.00,Wunderground v.1.15,2013-02-15 16:20:00,
2013-02-15 10:30:00,49.9,37.8,30.29,NE,52,14.0,14.0,63,0.00,,,0.00,Wunderground v.1.15,2013-02-15 16:30:00,
2013-02-15 10:40:00,50.5,37.5,30.29,NNE,29,15.0,15.0,61,0.00,,,0.00,Wunderground v.1.15,2013-02-15 16:40:00,
2013-02-15 10:50:00,49.9,37.8,30.30,NNE,25,16.0,16.0,63,0.00,,,0.00,Wunderground v.1.15,2013-02-15 16:50:00,
2013-02-15 11:00:00,50.3,37.4,30.30,NE,42,15.0,15.0,61,0.00,,,0.00,Wunderground v.1.15,2013-02-15 17:00:00,
2013-02-15 11:10:00,50.4,37.0,30.30,NE,34,15.0,17.0,60,0.00,,,0.00,Wunderground v.1.15,2013-02-15 17:10:00,
2013-02-15 11:20:00,50.9,37.1,30.30,NE,34,16.0,18.0,59,0.00,,,0.00,Wunderground v.1.15,2013-02-15 17:20:00,
2013-02-15 11:30:00,51.9,38.0,30.30,NE,45,16.0,18.0,59,0.00,,,0.00,Wunderground v.1.15,2013-02-15 17:30:00,
2013-02-15 11:40:00,51.7,37.4,30.30,NNE,22,14.0,14.0,58,0.00,,,0.00,Wunderground v.1.15,2013-02-15 17:40:00,
2013-02-15 11:50:00,51.8,35.2,30.30,NNE,32,15.0,17.0,53,0.00,,,0.00,Wunderground v.1.15,2013-02-15 17:50:00,
2013-02-15 12:00:00,50.9,36.2,30.30,NNE,19,15.0,15.0,57,0.00,,,0.00,Wunderground v.1.15,2013-02-15 18:00:00,
2013-02-15 12:10:00,50.8,36.1,30.29,NNE,30,13.0,13.0,57,0.00,,,0.00,Wunderground v.1.15,2013-02-15 18:10:00,
2013-02-15 12:20:00,50.9,36.6,30.29,NE,36,14.0,17.0,58,0.00,,,0.00,Wunderground v.1.15,2013-02-15 18:20:00,
2013-02-15 12:30:00,50.9,35.7,30.29,NE,43,12.0,17.0,56,0.00,,,0.00,Wunderground v.1.15,2013-02-15 18:30:00,
2013-02-15 12:40:00,51.1,36.4,30.29,NE,43,14.0,14.0,57,0.00,,,0.00,Wunderground v.1.15,2013-02-15 18:40:00,
2013-02-15 12:50:00,51.6,35.9,30.28,NE,35,11.0,11.0,55,0.00,,,0.00,Wunderground v.1.15,2013-02-15 18:50:00,
2013-02-15 13:00:00,51.4,36.7,30.28,NE,53,11.0,12.0,57,0.00,,,0.00,Wunderground v.1.15,2013-02-15 19:00:00,
2013-02-15 13:10:00,51.1,35.0,30.28,NE,34,14.0,14.0,54,0.00,,,0.00,Wunderground v.1.15,2013-02-15 19:10:00,
2013-02-15 13:20:00,51.2,35.1,30.28,NE,49,13.0,17.0,54,0.00,,,0.00,Wunderground v.1.15,2013-02-15 19:20:00,
2013-02-15 13:30:00,51.1,36.4,30.27,NNE,29,12.0,12.0,57,0.00,,,0.00,Wunderground v.1.15,2013-02-15 19:30:00,
2013-02-15 13:40:00,51.2,35.1,30.27,NNE,26,13.0,13.0,54,0.00,,,0.00,Wunderground v.1.15,2013-02-15 19:40:00,
2013-02-15 13:50:00,51.2,35.6,30.26,NNE,32,13.0,13.0,55,0.00,,,0.00,Wunderground v.1.15,2013-02-15 19:50:00,
2013-02-15 14:00:00,51.2,36.0,30.26,NNE,32,12.0,12.0,56,0.00,,,0.00,Wunderground v.1.15,2013-02-15 20:00:00,
2013-02-15 14:10:00,51.8,35.2,30.26,NE,43,11.0,11.0,53,0.00,,,0.00,Wunderground v.1.15,2013-02-15 20:10:00,
2013-02-15 14:20:00,51.8,34.7,30.26,NNE,33,10.0,10.0,52,0.00,,,0.00,Wunderground v.1.15,2013-02-15 20:20:00,
2013-02-15 14:30:00,51.7,35.1,30.26,NNE,17,10.0,11.0,53,0.00,,,0.00,Wunderground v.1.15,2013-02-15 20:30:00,
2013-02-15 14:40:00,51.7,34.1,30.25,NNE,15,10.0,10.0,51,0.00,,,0.00,Wunderground v.1.15,2013-02-15 20:40:00,
2013-02-15 14:50:00,51.7,34.1,30.25,NNE,24,9.0,9.0,51,0.00,,,0.00,Wunderground v.1.15,2013-02-15 20:50:00,
2013-02-15 15:00:00,51.8,34.7,30.25,NNE,33,10.0,11.0,52,0.00,,,0.00,Wunderground v.1.15,2013-02-15 21:00:00,
2013-02-15 15:10:00,51.6,33.6,30.25,NNE,24,11.0,11.0,50,0.00,,,0.00,Wunderground v.1.15,2013-02-15 21:10:00,
2013-02-15 15:20:00,51.2,34.2,30.25,ENE,62,10.0,10.0,52,0.00,,,0.00,Wunderground v.1.15,2013-02-15 21:20:00,
2013-02-15 15:30:00,51.1,34.1,30.25,ENE,60,9.0,13.0,52,0.00,,,0.00,Wunderground v.1.15,2013-02-15 21:30:00,
2013-02-15 15:40:00,51.1,34.1,30.25,ENE,63,10.0,10.0,52,0.00,,,0.00,Wunderground v.1.15,2013-02-15 21:40:00,
2013-02-15 15:50:00,51.0,32.5,30.25,NNE,19,9.0,11.0,49,0.00,,,0.00,Wunderground v.1.15,2013-02-15 21:50:00,
2013-02-15 16:00:00,50.8,29.6,30.25,NNE,15,10.0,16.0,44,0.00,,,0.00,Wunderground v.1.15,2013-02-15 22:00:00,
2013-02-15 16:10:00,50.4,29.8,30.26,NNE,26,11.0,13.0,45,0.00,,,0.00,Wunderground v.1.15,2013-02-15 22:10:00,
2013-02-15 16:20:00,50.4,29.3,30.26,NNE,26,11.0,11.0,44,0.00,,,0.00,Wunderground v.1.15,2013-02-15 22:20:00,
2013-02-15 16:30:00,50.4,29.8,30.27,NE,42,11.0,13.0,45,0.00,,,0.00,Wunderground v.1.15,2013-02-15 22:30:00,
2013-02-15 16:40:00,49.8,29.3,30.27,NNE,28,14.0,15.0,45,0.00,,,0.00,Wunderground v.1.15,2013-02-15 22:40:00,
2013-02-15 16:50:00,49.5,29.6,30.28,NE,49,11.0,14.0,46,0.00,,,0.00,Wunderground v.1.15,2013-02-15 22:50:00,
2013-02-15 17:00:00,49.3,27.2,30.29,NNE,31,12.0,14.0,42,0.00,,,0.00,Wunderground v.1.15,2013-02-15 23:00:00,
2013-02-15 17:10:00,48.8,24.9,30.29,NNE,29,13.0,13.0,39,0.00,,,0.00,Wunderground v.1.15,2013-02-15 23:10:00,
2013-02-15 17:20:00,48.5,24.6,30.30,NNE,12,10.0,10.0,39,0.00,,,0.00,Wunderground v.1.15,2013-02-15 23:20:00,
2013-02-15 17:30:00,48.5,23.4,30.30,NNE,15,9.0,10.0,37,0.00,,,0.00,Wunderground v.1.15,2013-02-15 23:30:00,
2013-02-15 17:40:00,48.5,21.4,30.30,NE,35,10.0,10.0,34,0.00,,,0.00,Wunderground v.1.15,2013-02-15 23:40:00,
2013-02-15 17:50:00,48.4,21.3,30.31,NNE,27,11.0,11.0,34,0.00,,,0.00,Wunderground v.1.15,2013-02-15 23:50:00,
2013-02-15 18:00:00,48.3,20.5,30.31,NNE,15,11.0,11.0,33,0.00,,,0.00,Wunderground v.1.15,2013-02-16 00:00:00,
2013-02-15 18:10:00,48.1,21.0,30.31,NE,35,9.0,9.0,34,0.00,,,0.00,Wunderground v.1.15,2013-02-16 00:10:00,
2013-02-15 18:20:00,47.9,20.8,30.31,NNE,26,7.0,7.0,34,0.00,,,0.00,Wunderground v.1.15,2013-02-16 00:20:00,
2013-02-15 18:30:00,47.6,21.3,30.31,NE,40,7.0,8.0,35,0.00,,,0.00,Wunderground v.1.15,2013-02-16 00:30:00,
2013-02-15 18:40:00,47.2,20.9,30.32,NNE,26,6.0,6.0,35,0.00,,,0.00,Wunderground v.1.15,2013-02-16 00:40:00,
2013-02-15 18:50:00,46.7,21.8,30.32,NNE,26,4.0,4.0,37,0.00,,,0.00,Wunderground v.1.15,2013-02-16 00:50:00,
2013-02-15 19:00:00,46.3,22.0,30.33,NNE,26,3.0,3.0,38,0.00,,,0.00,Wunderground v.1.15,2013-02-16 01:00:00,
2013-02-15 19:10:00,45.8,21.6,30.33,NNE,26,2.0,2.0,38,0.00,,,0.00,Wunderground v.1.15,2013-02-16 01:10:00,
2013-02-15 19:20:00,45.2,21.1,30.33,NNE,26,1.0,3.0,38,0.00,,,0.00,Wunderground v.1.15,2013-02-16 01:20:00,
2013-02-15 19:30:00,44.8,20.7,30.34,NNE,26,0.0,3.0,38,0.00,,,0.00,Wunderground v.1.15,2013-02-16 01:30:00,
2013-02-15 19:40:00,44.6,21.1,30.35,NNE,26,0.0,3.0,39,0.00,,,0.00,Wunderground v.1.15,2013-02-16 01:40:00,
2013-02-15 19:50:00,44.6,21.7,30.36,NNE,26,1.0,3.0,40,0.00,,,0.00,Wunderground v.1.15,2013-02-16 01:50:00,
2013-02-15 20:00:00,44.8,21.9,30.36,NNE,26,1.0,1.0,40,0.00,,,0.00,Wunderground v.1.15,2013-02-16 02:00:00,
2013-02-15 20:10:00,44.9,22.6,30.37,NNW,345,2.0,4.0,41,0.00,,,0.00,Wunderground v.1.15,2013-02-16 02:10:00,
2013-02-15 20:20:00,45.2,22.9,30.37,NNW,342,5.0,5.0,41,0.00,,,0.00,Wunderground v.1.15,2013-02-16 02:20:00,
2013-02-15 20:30:00,45.2,22.9,30.38,NNW,342,2.0,5.0,41,0.00,,,0.00,Wunderground v.1.15,2013-02-16 02:30:00,
2013-02-15 20:40:00,45.0,22.7,30.38,North,11,3.0,4.0,41,0.00,,,0.00,Wunderground v.1.15,2013-02-16 02:40:00,
2013-02-15 20:50:00,45.1,19.7,30.38,NNE,20,5.0,6.0,36,0.00,,,0.00,Wunderground v.1.15,2013-02-16 02:50:00,
2013-02-15 21:00:00,44.9,20.8,30.38,NNE,26,6.0,8.0,38,0.00,,,0.00,Wunderground v.1.15,2013-02-16 03:00:00,
2013-02-15 21:10:00,44.6,21.7,30.38,NNE,24,4.0,4.0,40,0.00,,,0.00,Wunderground v.1.15,2013-02-16 03:10:00,
2013-02-15 21:20:00,43.7,20.3,30.39,NNE,24,2.0,2.0,39,0.00,,,0.00,Wunderground v.1.15,2013-02-16 03:20:00,
2013-02-15 21:30:00,43.1,20.4,30.39,NNE,24,2.0,3.0,40,0.00,,,0.00,Wunderground v.1.15,2013-02-16 03:30:00,
2013-02-15 21:40:00,42.5,20.4,30.40,NNE,24,3.0,3.0,41,0.00,,,0.00,Wunderground v.1.15,2013-02-16 03:40:00,
2013-02-15 21:50:00,42.1,20.6,30.40,NNE,15,4.0,4.0,42,0.00,,,0.00,Wunderground v.1.15,2013-02-16 03:50:00,
2013-02-15 22:00:00,41.8,21.5,30.40,NNE,15,2.0,3.0,44,0.00,,,0.00,Wunderground v.1.15,2013-02-16 04:00:00,
2013-02-15 22:10:00,41.3,21.0,30.40,NNE,15,2.0,3.0,44,0.00,,,0.00,Wunderground v.1.15,2013-02-16 04:10:00,
2013-02-15 22:20:00,40.7,21.0,30.40,NNE,15,2.0,2.0,45,0.00,,,0.00,Wunderground v.1.15,2013-02-16 04:20:00,
2013-02-15 22:30:00,40.3,21.1,30.40,NNE,15,2.0,2.0,46,0.00,,,0.00,Wunderground v.1.15,2013-02-16 04:30:00,
2013-02-15 22:40:00,39.8,21.7,30.41,NNE,15,0.0,3.0,48,0.00,,,0.00,Wunderground v.1.15,2013-02-16 04:40:00,
2013-02-15 22:50:00,39.1,21.5,30.41,NNE,15,1.0,1.0,49,0.00,,,0.00,Wunderground v.1.15,2013-02-16 04:50:00,
2013-02-15 23:00:00,38.8,21.3,30.41,NNE,15,0.0,3.0,49,0.00,,,0.00,Wunderground v.1.15,2013-02-16 05:00:00,
2013-02-15 23:10:00,38.4,21.8,30.41,NNE,15,1.0,3.0,51,0.00,,,0.00,Wunderground v.1.15,2013-02-16 05:10:00,
2013-02-15 23:20:00,38.3,22.2,30.41,NNE,15,2.0,3.0,52,0.00,,,0.00,Wunderground v.1.15,2013-02-16 05:20:00,
2013-02-15 23:30:00,38.5,22.4,30.41,NNE,15,2.0,2.0,52,0.00,,,0.00,Wunderground v.1.15,2013-02-16 05:30:00,
2013-02-15 23:40:00,37.9,24.8,30.41,NNE,15,0.0,3.0,59,0.00,,,0.00,Wunderground v.1.15,2013-02-16 05:40:00,
2013-02-15 23:50:00,37.1,23.3,30.40,NNE,15,0.0,3.0,57,0.00,,,0.00,Wunderground v.1.15,2013-02-16 05:50:00,